ATHENA-FIDUS

Last updated on Sun Jun 21 2026 00:03:06 GMT+0000 (Coordinated Universal Time)

1 39509U 14006B 26171.25691020 .00000149 00000+0 00000+0 0 9991 2 39509 0.0370 95.0650 0001319 351.4707 312.2200 1.00270703 45115
UTC large
Height (km)
Speed (km/s)
/
Latitude / Longitude
Inclination (degrees)
Orbital Period (minutes)
Azimuth
Elevation
Range (km)
Doppler Factor

Next 0 passes for location: London (51.5072 / 0.1276)

No passes found over London.
ATHENA-FIDUS